When you browse on this site, cookies collect data to enhance your experience and personalize the content and advertising you see.
Visit our Privacy Policy to learn more. By continuing to use the site, you agree to this use of cookies and data.
  • Em Portugal
  • Lista de países
  • Para 7 dias
  • Temperatura da água
  • Mapas de satélite
  • Mapa do tempo
  • Widgets de tempo
  • user-avatar
    Iniciar Sessão

    Previsão horária em Tilevichi

    Hoje, 26 Abril, Sexta-feira

    Tempo Temperatura Precipitação Vento Pressão Humidade
    00:00 +13°C° 0 mm 2 m/s 750 mmHg 59%
    01:00 +13°C° 0 mm 2 m/s 750 mmHg 61%
    02:00 +11°C° 0 mm 1 m/s 749 mmHg 63%
    03:00 +10°C° 0 mm 1 m/s 749 mmHg 63%
    04:00 +10°C° 0 mm 1 m/s 749 mmHg 64%
    05:00 +10°C° 0 mm 1 m/s 749 mmHg 65%
    06:00 +12°C° 0 mm 2 m/s 749 mmHg 62%
    07:00 +14°C° 0 mm 2 m/s 749 mmHg 58%
    08:00 +16°C° 0 mm 2 m/s 749 mmHg 55%
    09:00 +18°C° 0 mm 3 m/s 749 mmHg 51%
    10:00 +19°C° 0 mm 4 m/s 748 mmHg 46%
    11:00 +20°C° 0 mm 4 m/s 748 mmHg 42%
    12:00 +21°C° 0 mm 4 m/s 748 mmHg 41%
    13:00 +21°C° 0 mm 4 m/s 748 mmHg 40%
    14:00 +22°C° 0 mm 4 m/s 748 mmHg 39%
    15:00 +21°C° 0 mm 4 m/s 747 mmHg 41%
    16:00 +21°C° 0 mm 3 m/s 747 mmHg 43%
    17:00 +21°C° 0 mm 3 m/s 746 mmHg 46%
    18:00 +19°C° 0 mm 3 m/s 746 mmHg 50%
    19:00 +17°C° 0 mm 3 m/s 746 mmHg 54%
    20:00 +14°C° 0 mm 3 m/s 746 mmHg 58%
    21:00 +13°C° 0 mm 3 m/s 746 mmHg 58%
    22:00 +13°C° 0 mm 3 m/s 746 mmHg 58%
    23:00 +12°C° 0 mm 3 m/s 745 mmHg 58%

    Amanhã, 27 Abril, Sábado

    Tempo Temperatura Precipitação Vento Pressão Humidade
    00:00 +12°C° 0 mm 3 m/s 745 mmHg 59%
    01:00 +11°C° 0 mm 3 m/s 745 mmHg 59%
    02:00 +12°C° 0 mm 2 m/s 745 mmHg 60%
    03:00 +10°C° 0 mm 2 m/s 744 mmHg 62%
    04:00 +10°C° 0 mm 3 m/s 744 mmHg 65%
    05:00 +9°C° 0 mm 3 m/s 744 mmHg 67%
    06:00 +11°C° 0 mm 3 m/s 743 mmHg 66%
    07:00 +13°C° 0 mm 3 m/s 743 mmHg 65%
    08:00 +16°C° 0 mm 3 m/s 743 mmHg 65%
    09:00 +17°C° 0 mm 3 m/s 743 mmHg 62%
    10:00 +19°C° 0 mm 3 m/s 743 mmHg 59%
    11:00 +21°C° 0 mm 3 m/s 742 mmHg 56%
    12:00 +21°C° 0.2 mm 3 m/s 742 mmHg 56%
    13:00 +22°C° 0.2 mm 3 m/s 741 mmHg 55%
    14:00 +22°C° 0.2 mm 3 m/s 741 mmHg 54%
    15:00 +23°C° 0.5 mm 2 m/s 741 mmHg 56%
    16:00 +23°C° 0.5 mm 2 m/s 740 mmHg 58%
    17:00 +21°C° 0.5 mm 2 m/s 740 mmHg 59%
    18:00 +20°C° 0.2 mm 1 m/s 740 mmHg 66%
    19:00 +19°C° 0.2 mm 1 m/s 740 mmHg 73%
    20:00 +16°C° 0.2 mm 1 m/s 740 mmHg 80%
    21:00 +15°C° 0.1 mm 1 m/s 740 mmHg 82%
    22:00 +15°C° 0.1 mm 1 m/s 740 mmHg 85%
    23:00 +14°C° 0.1 mm 1 m/s 740 mmHg 87%

    Depois de amanhã, 28 Abril, Domingo

    Tempo Temperatura Precipitação Vento Pressão Humidade
    00:00 +14°C° 0 mm 1 m/s 740 mmHg 88%
    01:00 +12°C° 0 mm 0 m/s 740 mmHg 89%
    02:00 +12°C° 0 mm 0 m/s 740 mmHg 89%
    03:00 +13°C° 0 mm 1 m/s 740 mmHg 89%
    04:00 +12°C° 0 mm 1 m/s 740 mmHg 89%
    05:00 +12°C° 0 mm 2 m/s 740 mmHg 89%
    06:00 +12°C° 0 mm 3 m/s 740 mmHg 83%
    07:00 +13°C° 0 mm 4 m/s 741 mmHg 77%
    08:00 +15°C° 0 mm 5 m/s 741 mmHg 70%
    09:00 +15°C° 0 mm 5 m/s 742 mmHg 69%
    10:00 +16°C° 0 mm 6 m/s 742 mmHg 67%
    11:00 +17°C° 0 mm 6 m/s 743 mmHg 65%
    12:00 +17°C° 0 mm 6 m/s 743 mmHg 63%
    13:00 +17°C° 0 mm 6 m/s 743 mmHg 61%
    14:00 +17°C° 0 mm 7 m/s 744 mmHg 59%
    15:00 +16°C° 0 mm 6 m/s 744 mmHg 58%
    16:00 +15°C° 0 mm 6 m/s 744 mmHg 56%
    17:00 +15°C° 0 mm 6 m/s 744 mmHg 55%
    18:00 +13°C° 0 mm 6 m/s 745 mmHg 54%
    19:00 +10°C° 0 mm 6 m/s 746 mmHg 53%
    20:00 +9°C° 0 mm 5 m/s 746 mmHg 52%
    21:00 +8°C° 0 mm 5 m/s 747 mmHg 52%
    22:00 +7°C° 0 mm 5 m/s 747 mmHg 52%
    23:00 +6°C° 0 mm 5 m/s 748 mmHg 51%

    29 Abril, Segunda-feira

    Tempo Temperatura Precipitação Vento Pressão Humidade
    00:00 +5°C° 0 mm 5 m/s 748 mmHg 54%
    01:00 +3°C° 0 mm 5 m/s 748 mmHg 56%
    02:00 +4°C° 0 mm 4 m/s 749 mmHg 58%
    03:00 +3°C° 0 mm 4 m/s 749 mmHg 61%
    04:00 +3°C° 0 mm 4 m/s 749 mmHg 63%
    05:00 +1°C° 0 mm 4 m/s 749 mmHg 65%
    06:00 +2°C° 0 mm 5 m/s 749 mmHg 62%
    07:00 +5°C° 0 mm 5 m/s 749 mmHg 59%
    08:00 +5°C° 0 mm 6 m/s 750 mmHg 55%
    09:00 +7°C° 0 mm 6 m/s 750 mmHg 52%
    10:00 +8°C° 0 mm 6 m/s 750 mmHg 49%
    11:00 +9°C° 0 mm 6 m/s 750 mmHg 45%
    12:00 +10°C° 0 mm 6 m/s 749 mmHg 44%
    13:00 +10°C° 0 mm 5 m/s 749 mmHg 42%
    14:00 +12°C° 0 mm 5 m/s 749 mmHg 41%
    15:00 +12°C° 0 mm 5 m/s 749 mmHg 41%
    16:00 +12°C° 0 mm 5 m/s 748 mmHg 41%
    17:00 +11°C° 0 mm 4 m/s 748 mmHg 42%
    18:00 +10°C° 0 mm 4 m/s 748 mmHg 47%
    19:00 +8°C° 0 mm 3 m/s 748 mmHg 52%
    20:00 +7°C° 0 mm 3 m/s 748 mmHg 56%
    21:00 +5°C° 0 mm 3 m/s 748 mmHg 58%
    22:00 +4°C° 0 mm 3 m/s 748 mmHg 59%
    23:00 +5°C° 0 mm 2 m/s 748 mmHg 60%

    30 Abril, Terça-feira

    Tempo Temperatura Precipitação Vento Pressão Humidade
    00:00 +4°C° 0 mm 2 m/s 748 mmHg 62%
    01:00 +4°C° 0 mm 2 m/s 748 mmHg 64%
    02:00 +3°C° 0 mm 2 m/s 748 mmHg 66%
    03:00 +3°C° 0 mm 2 m/s 748 mmHg 67%
    04:00 +3°C° 0 mm 2 m/s 748 mmHg 67%
    05:00 +2°C° 0 mm 2 m/s 748 mmHg 68%
    06:00 +3°C° 0 mm 3 m/s 747 mmHg 63%
    07:00 +5°C° 0 mm 3 m/s 747 mmHg 57%
    08:00 +8°C° 0 mm 3 m/s 747 mmHg 51%
    09:00 +9°C° 0 mm 3 m/s 747 mmHg 48%
    10:00 +10°C° 0 mm 4 m/s 747 mmHg 44%
    11:00 +12°C° 0 mm 4 m/s 746 mmHg 40%
    12:00 +12°C° 0 mm 4 m/s 746 mmHg 39%
    13:00 +13°C° 0 mm 3 m/s 746 mmHg 38%
    14:00 +13°C° 0 mm 3 m/s 745 mmHg 37%
    15:00 +13°C° 0 mm 3 m/s 745 mmHg 38%
    16:00 +13°C° 0 mm 3 m/s 744 mmHg 39%
    17:00 +13°C° 0 mm 2 m/s 744 mmHg 40%
    18:00 +12°C° 0 mm 2 m/s 744 mmHg 44%
    19:00 +10°C° 0 mm 1 m/s 744 mmHg 48%
    20:00 +9°C° 0 mm 1 m/s 744 mmHg 52%
    21:00 +9°C° 0 mm 1 m/s 744 mmHg 52%
    22:00 +9°C° 0 mm 1 m/s 744 mmHg 52%
    23:00 +9°C° 0 mm 1 m/s 744 mmHg 51%

    1 Maio, Quarta-feira

    Tempo Temperatura Precipitação Vento Pressão Humidade
    00:00 +8°C° 0 mm 1 m/s 744 mmHg 52%
    01:00 +8°C° 0 mm 1 m/s 743 mmHg 54%
    02:00 +8°C° 0 mm 1 m/s 743 mmHg 55%
    03:00 +7°C° 0 mm 1 m/s 743 mmHg 58%
    04:00 +7°C° 0 mm 1 m/s 743 mmHg 60%
    05:00 +6°C° 0 mm 1 m/s 743 mmHg 63%
    06:00 +8°C° 0 mm 1 m/s 743 mmHg 59%
    07:00 +9°C° 0 mm 1 m/s 743 mmHg 55%
    08:00 +11°C° 0 mm 1 m/s 743 mmHg 52%
    09:00 +12°C° 0 mm 2 m/s 743 mmHg 47%
    10:00 +13°C° 0 mm 2 m/s 742 mmHg 43%
    11:00 +14°C° 0 mm 2 m/s 742 mmHg 38%
    12:00 +14°C° 0 mm 2 m/s 742 mmHg 38%
    13:00 +14°C° 0 mm 2 m/s 742 mmHg 39%
    14:00 +14°C° 0 mm 2 m/s 741 mmHg 39%
    15:00 +14°C° 0 mm 2 m/s 741 mmHg 40%
    16:00 +14°C° 0 mm 2 m/s 741 mmHg 42%
    17:00 +13°C° 0 mm 1 m/s 741 mmHg 43%
    18:00 +12°C° 0 mm 1 m/s 740 mmHg 47%
    19:00 +10°C° 0 mm 1 m/s 740 mmHg 52%
    20:00 +9°C° 0 mm 1 m/s 740 mmHg 56%
    21:00 +8°C° 0 mm 1 m/s 740 mmHg 57%
    22:00 +8°C° 0 mm 1 m/s 739 mmHg 58%
    23:00 +7°C° 0 mm 1 m/s 739 mmHg 59%
    Mostrar mais